Regional Weather Roundup
Issued by NWS New Orleans/Baton Rouge, LA

Home | Current Version | Previous Version | Text Only | Print | Product List | Glossary Off
Versions: 1 2 3 4 5 6 7 8 9 10 11 12 13 14 15 16 17 18 19 20 21 22 23 24 25 26 27 28 29 30 31 32 33 34 35 36 37 38 39 40 41 42 43 44 45 46 47 48 49 50

829
ASUS44 KLIX 240910
RWRLIX
NEW ORLEANS REGIONAL WEATHER ROUNDUP
NATIONAL WEATHER SERVICE NEW ORLEANS LA
400 AM CDT THU APR 24 2014

NOTE: "FAIR" INDICATES FEW OR NO CLOUDS BELOW 12,000 FEET WITH NO
      SIGNIFICANT WEATHER AND/OR OBSTRUCTIONS TO VISIBILITY.
      SKY/WX - SKY CONDITION AND SIGNIFICANT WEATHER.
      TMP - AIR TEMPERATURE.     DP    - DEWPOINT TEMPERATURE.
      RH  - RELATIVE HUMIDITY.   PRES  - PRESSURE.
      HI  - HEAT INDEX.          WCI   - WIND CHILL INDEX.

*  THESE STATIONS ARE NOT NWS OR FAA STATIONS AND ARE NOT UNDER
   NWS QUALITY CONTROL.

LAZ038-040-048-061>063-065>067-069-241000-
SOUTHEAST LOUISIANA

CITY           SKY/WX    TMP DP  RH WIND       PRES   REMARKS
N.O. AUDUBON   NOT AVBL
N.O. INTL ARPT CLEAR     65  63  93 CALM      29.91S
N.O. LAKEFRONT CLEAR     68  64  87 CALM      29.91F
N.O. DOWNTOWN*   N/A     70  63  78 CALM      29.92S
SLIDELL        CLOUDY    59  56  89 CALM      29.90F
BATON ROUGE    CLEAR     62  60  93 CALM      29.90S
BOOTHVILLE     CLEAR     70  66  87 SW6       29.92F
BELLE CHASSE   PTCLDY    61  57  88 CALM      29.91S FOG
BOGALUSA*        N/A     59  56  89 CALM      29.92F
GALLIANO*      SUNNY     62  59  90 CALM      29.91S
NEW ROADS*       N/A     62  61  97 CALM      29.89F FOG
GONZALES*        N/A     60  60 100 CALM      29.90S
HAMMOND*       CLEAR     63  59  88 CALM      29.92S
HOUMA*         FOG       60  58  93 CALM      29.91S VSB 1/4
PORT FOURCHON* MOSUNNY   70  66  88 S6        29.93F

$$

MSZ070-080>082-241000-
SOUTHERN MISSISSIPPI

CITY           SKY/WX    TMP DP  RH WIND       PRES   REMARKS
MCCOMB         CLEAR     63  59  87 CALM      29.90F
GULFPORT       PTCLDY    64  61  90 CALM      29.91S FOG
BILOXI         CLEAR     64  64 100 NW1       29.92S
PASCAGOULA     CLOUDY    60  59  96 CALM      29.92S FOG

$$

COASTAL OBSERVATIONS
LAKE AND NEARSHORE STATIONS

STATION/POSITION TIME  TEMP    WIND        PRES    WAVE
                       AIR SEA DIR/SP/G            HT/PER
                 (UTC) (F)     (DEG/KT/KT) (MB)    (FT/S)
PASCAGOULA       0900   70     260/  4/  6 1012.3
WAVELAND YACHT   0900   66 75  260/  1/  2 1012.2
GRAND ISLE       0900   69 72  220/  4/  4 1013.3
SOUTHWEST PASS   0900   65 60  210/  6/  6 1013.5
NEW CANAL        0900   68 71  160/  1/  1 1013.1
SHELL BEACH      0900   69 68  200/  2/  3 1012.7

OFFSHORE STATIONS

STATION/POSITION TIME  TEMP    WIND        PRES    WAVE
                       AIR SEA DIR/SP/G            HT/PER
                 (UTC) (F)     (DEG/KT/KT) (MB)    (FT/S)
64 S DAUPHIN ISL 0844   69 71  220/  6/  6 1013.6

$$




USA.gov is the U.S. government's official web portal to all federal, state and local government web resources and services.